XBMGH MMOX-MMVR

Flight info

Callsign XBMGH
Flight time 0h 38m
Altitude 7499
Route VER
Aircraft B350/L-SBGRW/S

Departure

Time 2026-04-22 00:17
Airport Xoxocotlán International Airport (MMOX)

Arrival

Time 2026-04-22 00:56
Airport General Heriberto Jara International Airport (MMVR)
Time Latitude Longitude Altitude Speed Heading
2026-04-21 23:52 17.00246 -96.72243 4991 ft 0 kts 16°
2026-04-22 00:12 17.00247 -96.72243 4963 ft 0 kts 16°
2026-04-22 00:12 17.00249 -96.72242 4991 ft 1 kts
2026-04-22 00:13 17.00232 -96.72291 4991 ft 14 kts 218°
2026-04-22 00:13 17.00118 -96.72325 4990 ft 18 kts 195°
2026-04-22 00:13 16.99998 -96.72362 4990 ft 18 kts 196°
2026-04-22 00:13 16.99877 -96.72397 4990 ft 18 kts 195°
2026-04-22 00:14 16.99765 -96.72444 4990 ft 17 kts 225°
2026-04-22 00:14 16.99674 -96.72540 4987 ft 19 kts 228°
2026-04-22 00:14 16.99586 -96.72640 4989 ft 19 kts 226°
2026-04-22 00:14 16.99478 -96.72713 4990 ft 18 kts 197°
2026-04-22 00:15 16.99367 -96.72750 4993 ft 16 kts 199°
2026-04-22 00:15 16.99264 -96.72779 4993 ft 15 kts 196°
2026-04-22 00:15 16.99156 -96.72813 4991 ft 17 kts 197°
2026-04-22 00:15 16.99042 -96.72842 4990 ft 17 kts 192°
2026-04-22 00:16 16.98928 -96.72857 4989 ft 16 kts 169°
2026-04-22 00:16 16.98825 -96.72837 4988 ft 14 kts 198°
2026-04-22 00:16 16.98848 -96.72893 4987 ft 13 kts
2026-04-22 00:16 16.99214 -96.72785 4992 ft 94 kts 15°
2026-04-22 00:17 17.00023 -96.72553 5005 ft 145 kts 13°
2026-04-22 00:17 17.01076 -96.72274 5275 ft 155 kts 19°
2026-04-22 00:17 17.02176 -96.71993 5675 ft 178 kts 11°
2026-04-22 00:17 17.03518 -96.71988 6228 ft 198 kts 353°
2026-04-22 00:18 17.04886 -96.72266 6887 ft 198 kts 346°
2026-04-22 00:18 17.06226 -96.72671 7522 ft 205 kts 345°
2026-04-22 00:18 17.07627 -96.73064 8100 ft 211 kts 345°
2026-04-22 00:18 17.09014 -96.73461 8965 ft 199 kts 345°
2026-04-22 00:19 17.10352 -96.73852 9720 ft 200 kts 343°
2026-04-22 00:19 17.11788 -96.74297 9784 ft 235 kts 343°
2026-04-22 00:19 17.13494 -96.74822 9693 ft 262 kts 343°
2026-04-22 00:19 17.15327 -96.75384 9687 ft 277 kts 343°
2026-04-22 00:20 17.17211 -96.75959 9681 ft 287 kts 343°
2026-04-22 00:20 17.19150 -96.76552 9669 ft 293 kts 344°
2026-04-22 00:20 17.21121 -96.77154 9664 ft 297 kts 344°
2026-04-22 00:20 17.23088 -96.77752 9655 ft 299 kts 344°
2026-04-22 00:21 17.25120 -96.78372 9644 ft 301 kts 344°
2026-04-22 00:21 17.27102 -96.78977 9636 ft 302 kts 343°
2026-04-22 00:21 17.29124 -96.79594 9630 ft 302 kts 344°
2026-04-22 00:21 17.31138 -96.80208 9622 ft 302 kts 344°
2026-04-22 00:22 17.33155 -96.80824 9616 ft 302 kts 344°
2026-04-22 00:22 17.35175 -96.81442 9609 ft 302 kts 344°
2026-04-22 00:22 17.37197 -96.82061 9611 ft 302 kts 344°
2026-04-22 00:22 17.39216 -96.82679 9611 ft 302 kts 344°
2026-04-22 00:23 17.41231 -96.83295 9616 ft 302 kts 344°
2026-04-22 00:23 17.43248 -96.83913 9616 ft 301 kts 344°
2026-04-22 00:23 17.45258 -96.84531 9620 ft 301 kts 344°
2026-04-22 00:23 17.47267 -96.85149 9621 ft 301 kts 344°
2026-04-22 00:24 17.49272 -96.85767 9620 ft 300 kts 344°
2026-04-22 00:24 17.51276 -96.86384 9621 ft 300 kts 344°
2026-04-22 00:24 17.53275 -96.87000 9620 ft 299 kts 344°
2026-04-22 00:24 17.55274 -96.87621 9625 ft 299 kts 344°
2026-04-22 00:25 17.57269 -96.88242 9623 ft 300 kts 344°
2026-04-22 00:25 17.59265 -96.88863 9622 ft 299 kts 344°
2026-04-22 00:25 17.61265 -96.89486 9627 ft 299 kts 344°
2026-04-22 00:25 17.63259 -96.90108 9624 ft 299 kts 344°
2026-04-22 00:26 17.64577 -96.90518 9623 ft 299 kts 344°
2026-04-22 00:26 17.66583 -96.91067 9624 ft 298 kts 352°
2026-04-22 00:26 17.68642 -96.90985 9626 ft 297 kts 13°
2026-04-22 00:26 17.70621 -96.90389 9680 ft 295 kts 18°
2026-04-22 00:27 17.72545 -96.89734 9991 ft 286 kts 18°
2026-04-22 00:27 17.74404 -96.89064 10281 ft 280 kts 19°
2026-04-22 00:27 17.76225 -96.88388 10582 ft 276 kts 19°
2026-04-22 00:27 17.78024 -96.87712 10874 ft 274 kts 20°
2026-04-22 00:28 17.79716 -96.86846 11171 ft 271 kts 37°
2026-04-22 00:28 17.81081 -96.85478 11408 ft 274 kts 46°
2026-04-22 00:28 17.82299 -96.83899 11410 ft 283 kts 54°
2026-04-22 00:28 17.83392 -96.82152 11411 ft 289 kts 57°
2026-04-22 00:29 17.84479 -96.80354 11414 ft 293 kts 57°
2026-04-22 00:29 17.85572 -96.78527 11420 ft 296 kts 57°
2026-04-22 00:29 17.86663 -96.76692 11421 ft 297 kts 57°
2026-04-22 00:29 17.87759 -96.74848 11426 ft 298 kts 57°
2026-04-22 00:30 17.88847 -96.73017 11427 ft 299 kts 57°
2026-04-22 00:30 17.89948 -96.71161 11425 ft 300 kts 57°
2026-04-22 00:30 17.91053 -96.69299 11426 ft 300 kts 57°
2026-04-22 00:30 17.92157 -96.67439 11423 ft 300 kts 57°
2026-04-22 00:31 17.93262 -96.65577 11421 ft 300 kts 57°
2026-04-22 00:31 17.94368 -96.63711 11415 ft 300 kts 57°
2026-04-22 00:31 17.95468 -96.61855 11417 ft 300 kts 57°
2026-04-22 00:31 17.96569 -96.59995 11419 ft 299 kts 57°
2026-04-22 00:32 17.97666 -96.58144 11411 ft 300 kts 57°
2026-04-22 00:32 17.98771 -96.56282 11408 ft 300 kts 57°
2026-04-22 00:32 17.99876 -96.54419 11408 ft 300 kts 57°
2026-04-22 00:32 18.00976 -96.52562 11398 ft 300 kts 57°
2026-04-22 00:33 18.02146 -96.50744 11398 ft 299 kts 52°
2026-04-22 00:33 18.03498 -96.49079 11398 ft 299 kts 45°
2026-04-22 00:33 18.05030 -96.47607 11395 ft 299 kts 38°
2026-04-22 00:33 18.06722 -96.46350 11391 ft 298 kts 31°
2026-04-22 00:34 18.08562 -96.45340 11386 ft 298 kts 22°
2026-04-22 00:34 18.10551 -96.44718 11381 ft 299 kts 11°
2026-04-22 00:34 18.12598 -96.44350 11383 ft 298 kts
2026-04-22 00:34 18.14634 -96.43913 11378 ft 299 kts 14°
2026-04-22 00:35 18.16640 -96.43357 11376 ft 299 kts 15°
2026-04-22 00:35 18.18663 -96.42835 11374 ft 299 kts 13°
2026-04-22 00:35 18.20687 -96.42353 11373 ft 299 kts 13°
2026-04-22 00:35 18.22713 -96.41847 11370 ft 299 kts 13°
2026-04-22 00:36 18.24734 -96.41332 11371 ft 299 kts 13°
2026-04-22 00:36 18.26756 -96.40829 11368 ft 299 kts 13°
2026-04-22 00:36 18.28782 -96.40325 11367 ft 299 kts 13°
2026-04-22 00:36 18.30804 -96.39817 11366 ft 299 kts 13°
2026-04-22 00:37 18.32828 -96.39310 11361 ft 299 kts 13°
2026-04-22 00:37 18.34850 -96.38804 11361 ft 299 kts 13°
2026-04-22 00:37 18.36873 -96.38298 11359 ft 299 kts 13°
2026-04-22 00:37 18.38890 -96.37793 11360 ft 299 kts 13°
2026-04-22 00:38 18.40913 -96.37286 11360 ft 299 kts 13°
2026-04-22 00:38 18.42934 -96.36780 11361 ft 299 kts 13°
2026-04-22 00:38 18.44956 -96.36272 11359 ft 298 kts 13°
2026-04-22 00:38 18.46978 -96.35766 11361 ft 298 kts 13°
2026-04-22 00:39 18.48993 -96.35260 11362 ft 298 kts 13°
2026-04-22 00:39 18.51015 -96.34753 11358 ft 298 kts 13°
2026-04-22 00:39 18.53035 -96.34246 11359 ft 298 kts 13°
2026-04-22 00:39 18.55049 -96.33741 11358 ft 298 kts 13°
2026-04-22 00:40 18.57065 -96.33235 11357 ft 298 kts 13°
2026-04-22 00:40 18.59079 -96.32729 11357 ft 298 kts 13°
2026-04-22 00:40 18.61096 -96.32223 11359 ft 298 kts 13°
2026-04-22 00:40 18.63118 -96.31714 11358 ft 298 kts 13°
2026-04-22 00:41 18.65126 -96.31210 11362 ft 298 kts 13°
2026-04-22 00:41 18.67147 -96.30703 11359 ft 298 kts 13°
2026-04-22 00:41 18.69167 -96.30194 11358 ft 298 kts 13°
2026-04-22 00:41 18.71184 -96.29686 11362 ft 298 kts 13°
2026-04-22 00:42 18.73203 -96.29179 11361 ft 298 kts 13°
2026-04-22 00:42 18.75191 -96.28679 11358 ft 298 kts 13°
2026-04-22 00:42 18.77231 -96.28166 11359 ft 298 kts 13°
2026-04-22 00:42 18.79223 -96.27665 11360 ft 298 kts 13°
2026-04-22 00:43 18.81239 -96.27157 11365 ft 298 kts 13°
2026-04-22 00:43 18.83260 -96.26648 11364 ft 298 kts 13°
2026-04-22 00:43 18.85277 -96.26140 11364 ft 298 kts 13°
2026-04-22 00:43 18.87296 -96.25631 11366 ft 298 kts 13°
2026-04-22 00:44 18.89312 -96.25123 11366 ft 298 kts 13°
2026-04-22 00:44 18.91328 -96.24614 11366 ft 298 kts 13°
2026-04-22 00:44 18.93352 -96.24104 11368 ft 298 kts 13°
2026-04-22 00:44 18.95372 -96.23595 11369 ft 298 kts 13°
2026-04-22 00:45 18.97387 -96.23086 11370 ft 298 kts 13°
2026-04-22 00:45 18.98072 -96.22913 11370 ft 298 kts 13°
2026-04-22 00:45 18.99245 -96.22617 11370 ft 298 kts 13°
2026-04-22 00:45 19.01260 -96.22110 11371 ft 288 kts 13°
2026-04-22 00:46 19.03074 -96.21650 11357 ft 251 kts 12°
2026-04-22 00:46 19.04734 -96.21240 10915 ft 240 kts 12°
2026-04-22 00:46 19.06251 -96.20857 10947 ft 211 kts 12°
2026-04-22 00:46 19.07605 -96.20514 10924 ft 190 kts 12°
2026-04-22 00:47 19.08836 -96.20212 10894 ft 173 kts 11°
2026-04-22 00:47 19.09974 -96.19936 10814 ft 162 kts 11°
2026-04-22 00:47 19.11076 -96.19668 10465 ft 170 kts 11°
2026-04-22 00:47 19.12300 -96.19375 9884 ft 189 kts 11°
2026-04-22 00:48 19.13628 -96.19062 9255 ft 202 kts 11°
2026-04-22 00:48 19.15031 -96.18737 8642 ft 210 kts 11°
2026-04-22 00:48 19.16477 -96.18408 8041 ft 215 kts 11°
2026-04-22 00:48 19.17957 -96.18077 7450 ft 219 kts 11°
2026-04-22 00:49 19.19441 -96.17749 6882 ft 222 kts 11°
2026-04-22 00:49 19.20977 -96.17417 6288 ft 223 kts
2026-04-22 00:49 19.22495 -96.17553 5721 ft 223 kts 335°
2026-04-22 00:49 19.23610 -96.18640 5156 ft 221 kts 296°
2026-04-22 00:50 19.23841 -96.20215 4586 ft 219 kts 258°
2026-04-22 00:50 19.23113 -96.21573 4022 ft 218 kts 220°
2026-04-22 00:50 19.21746 -96.22221 3455 ft 217 kts 192°
2026-04-22 00:50 19.20260 -96.22498 2857 ft 217 kts 188°
2026-04-22 00:51 19.18766 -96.22749 2255 ft 218 kts 187°
2026-04-22 00:51 19.17267 -96.23007 1651 ft 218 kts 187°
2026-04-22 00:51 19.15779 -96.23283 1203 ft 210 kts 188°
2026-04-22 00:51 19.14414 -96.23554 1193 ft 184 kts 187°
2026-04-22 00:52 19.13238 -96.23791 1186 ft 162 kts 190°
2026-04-22 00:52 19.12153 -96.24000 1186 ft 166 kts 187°
2026-04-22 00:52 19.10991 -96.24223 1191 ft 173 kts 188°
2026-04-22 00:52 19.09784 -96.24462 1192 ft 178 kts 188°
2026-04-22 00:53 19.08588 -96.24376 1210 ft 173 kts 149°
2026-04-22 00:53 19.07851 -96.23431 1206 ft 169 kts 109°
2026-04-22 00:53 19.07526 -96.22237 1202 ft 170 kts 100°
2026-04-22 00:53 19.07271 -96.21082 1195 ft 152 kts 101°
2026-04-22 00:54 19.07152 -96.20044 1170 ft 135 kts 69°
2026-04-22 00:54 19.07795 -96.19594 1186 ft 112 kts
2026-04-22 00:54 19.08633 -96.19595 1159 ft 133 kts 359°
2026-04-22 00:54 19.09607 -96.19700 896 ft 143 kts
2026-04-22 00:55 19.10569 -96.19581 802 ft 135 kts 10°
2026-04-22 00:55 19.11502 -96.19369 478 ft 140 kts 14°
2026-04-22 00:55 19.13185 -96.19025 118 ft 103 kts 11°
2026-04-22 00:56 19.13692 -96.18904 113 ft 39 kts 17°
2026-04-22 00:56 19.13950 -96.18863 112 ft 21 kts 39°
2026-04-22 00:56 19.14020 -96.18795 112 ft 12 kts 40°
2026-04-22 00:56 19.14084 -96.18735 112 ft 12 kts 46°
2026-04-22 00:57 19.14144 -96.18680 112 ft 10 kts 38°
2026-04-22 00:57 19.14196 -96.18632 111 ft 9 kts 48°
2026-04-22 00:57 19.14209 -96.18570 114 ft 8 kts 97°
2026-04-22 00:57 19.14185 -96.18524 115 ft 8 kts 166°
2026-04-22 00:58 19.14124 -96.18534 115 ft 10 kts 192°
2026-04-22 00:58 19.14063 -96.18546 115 ft 3 kts 183°
2026-04-22 00:58 19.14051 -96.18528 115 ft 4 kts 99°
2026-04-22 00:58 19.14040 -96.18495 116 ft 4 kts 153°
2026-04-22 00:59 19.14022 -96.18478 116 ft 4 kts 105°
2026-04-22 00:59 19.14047 -96.18461 116 ft 6 kts 12°
2026-04-22 00:59 19.14065 -96.18457 116 ft 0 kts 11°